Location: ??? ????
(38.0580°N, 23.1536°E)
Time: 13:50:59
(UTC+00:00)

Helios 1A Rocket - Pass Details

Date: 13 December 2025
Orbit: 433 x 442 km, 98.3° (Epoch: 17 January)

Event Time Altitude Azimuth Distance (km) Brightness Sun altitude
Exits shadow 16:20:42 21° 101° (E) 1,065 3.8 -13.9°
Drops below altitude 10° 16:23:13 10° 149° (SSE) 1,588 5.0 -14.3°
Sets 16:25:34 0° 165° (SSE) 2,456 6.2 -14.8°
